This is the latest recevied weather packets stored in our database for station/object KW6V-15. If no packets are shown the sender has not sent any weather packets the latest 10 day(s).
| Time | Temp. | Humidity | Pressure | Rain* | Wind** | Luminosity | Snow |
|---|---|---|---|---|---|---|---|
| 1788233455 | 15.56° C | 86% | 1013.4 hPa | 0 mm | - | - | - |
| 1788231669 | 15.56° C | 86% | 1013.2 hPa | 0 mm | - | - | - |
| 1788229869 | 16.11° C | 84% | 1013 hPa | 0 mm | - | - | - |
| 1788228034 | 16.67° C | 83% | 1012.9 hPa | 0 mm | - | - | - |
| 1788226260 | 17.22° C | 81% | 1012.9 hPa | 0 mm | - | - | - |
| 1788224447 | 17.78° C | 80% | 1012.9 hPa | 0 mm | - | - | - |
| 1788220877 | 18.33° C | 76% | 1013.1 hPa | 0 mm | - | - | - |
| 1788219069 | 18.33° C | 77% | 1013.4 hPa | 0 mm | - | - | - |
| 1788217274 | 18.89° C | 74% | 1013.8 hPa | 0 mm | - | - | - |
| 1788215445 | 18.89° C | 74% | 1014 hPa | 0 mm | - | - | - |
| 1788213660 | 19.44° C | 73% | 1014 hPa | 0 mm | - | - | - |
| 1788211857 | 19.44° C | 72% | 1014.1 hPa | 0 mm | - | - | - |
| 1788210086 | 19.44° C | 72% | 1014.1 hPa | 0 mm | - | - | - |
| 1788208279 | 18.89° C | 74% | 1014.1 hPa | 0 mm | - | - | - |
| 1788206443 | 18.89° C | 75% | 1014.2 hPa | 0 mm | - | - | - |
| 1788204680 | 17.78° C | 77% | 1014.2 hPa | 0 mm | - | - | - |
| 1788202849 | 17.78° C | 77% | 1014.3 hPa | 0 mm | - | - | - |
| 1788201084 | 17.22° C | 79% | 1014.1 hPa | 0 mm | - | - | - |
| 1788199241 | 16.67° C | 81% | 1014 hPa | 0 mm | - | - | - |
| 1788197432 | 16.11° C | 83% | 1013.7 hPa | 0 mm | - | - | - |
| 1788195623 | 15° C | 86% | 1013.7 hPa | 0 mm | - | - | - |
| 1788193867 | 14.44° C | 88% | 1013.7 hPa | 0 mm | - | - | - |
| 1788192031 | 13.89° C | 89% | 1013.6 hPa | 0 mm | - | - | - |
| 1788190272 | 13.89° C | 90% | 1013.4 hPa | 0 mm | - | - | - |
| 1788188470 | 13.33° C | 91% | 1013.2 hPa | 0 mm | - | - | - |
* Rain latest hour (hover to see other rain measurements)
** Current wind speed in m/s (hover to see current wind gust speed)